EZY14QP BIKF-EGGW

Flight info

Callsign EZY14QP
Flight time N/A
Altitude 37000
Route OSKUM3C OSKUM DCT RATSU/N0450F370 DCT BARKU DCT AKOMU DCT VAMEB UL612 LISTO
Aircraft A20N/M-SDE2E3FGHIRWXY/LB1

Departure

Time 2026-04-29 19:22
Airport Keflavik International Airport (BIKF)

Arrival

Time N/A
Airport London Luton Airport (EGGW)
Time Latitude Longitude Altitude Speed Heading
2026-04-29 19:01 63.99377 -22.62202 140 ft 0 kts 238°
2026-04-29 19:13 63.99381 -22.62187 140 ft 4 kts 237°
2026-04-29 19:13 63.99397 -22.62136 140 ft 4 kts 232°
2026-04-29 19:14 63.99414 -22.62090 140 ft 4 kts 221°
2026-04-29 19:14 63.99436 -22.62059 140 ft 4 kts 181°
2026-04-29 19:14 63.99448 -22.62065 140 ft 1 kts 150°
2026-04-29 19:14 63.99450 -22.62066 140 ft 0 kts 150°
2026-04-29 19:18 63.99448 -22.62065 140 ft 1 kts 150°
2026-04-29 19:18 63.99422 -22.62034 140 ft 7 kts 149°
2026-04-29 19:19 63.99355 -22.61988 140 ft 13 kts 174°
2026-04-29 19:19 63.99249 -22.61988 140 ft 16 kts 180°
2026-04-29 19:19 63.99181 -22.61946 140 ft 4 kts 112°
2026-04-29 19:19 63.99173 -22.61833 142 ft 11 kts 93°
2026-04-29 19:20 63.99167 -22.61622 146 ft 15 kts 92°
2026-04-29 19:20 63.99174 -22.61371 151 ft 17 kts 89°
2026-04-29 19:20 63.99172 -22.61140 156 ft 13 kts 92°
2026-04-29 19:20 63.99171 -22.60940 160 ft 11 kts 88°
2026-04-29 19:21 63.99173 -22.60770 165 ft 10 kts 88°
2026-04-29 19:21 63.99173 -22.60617 171 ft 9 kts 100°
2026-04-29 19:21 63.99132 -22.60533 173 ft 11 kts 166°
2026-04-29 19:21 63.98841 -22.60545 172 ft 89 kts 180°
2026-04-29 19:22 63.97943 -22.60516 337 ft 153 kts 176°
2026-04-29 19:22 63.96883 -22.60289 1511 ft 153 kts 183°
2026-04-29 19:22 63.95807 -22.60263 2710 ft 160 kts 187°
2026-04-29 19:22 63.94627 -22.60371 3567 ft 180 kts 187°
2026-04-29 19:23 63.93302 -22.60420 4360 ft 207 kts 178°
2026-04-29 19:23 63.91835 -22.59346 5314 ft 240 kts 156°
2026-04-29 19:23 63.90584 -22.56559 6422 ft 267 kts 127°
2026-04-29 19:23 63.89875 -22.52516 7646 ft 283 kts 113°
2026-04-29 19:24 63.89371 -22.48101 8847 ft 294 kts 110°
2026-04-29 19:24 63.88901 -22.43525 10040 ft 302 kts 110°
2026-04-29 19:24 63.88401 -22.38882 10817 ft 322 kts 111°
2026-04-29 19:24 63.87812 -22.33777 11422 ft 347 kts 112°
2026-04-29 19:25 63.87167 -22.28376 12274 ft 359 kts 112°
2026-04-29 19:25 63.86503 -22.22862 13381 ft 366 kts 113°
2026-04-29 19:25 63.85820 -22.17255 14393 ft 372 kts 114°
2026-04-29 19:25 63.85122 -22.11554 15395 ft 378 kts 114°
2026-04-29 19:26 63.84409 -22.05780 16367 ft 384 kts 115°
2026-04-29 19:26 63.83738 -21.99855 17321 ft 396 kts 110°
2026-04-29 19:26 63.83354 -21.93579 18258 ft 407 kts 106°
2026-04-29 19:26 63.83008 -21.87180 19062 ft 412 kts 107°
2026-04-29 19:27 63.82657 -21.80706 19878 ft 417 kts 107°
2026-04-29 19:27 63.82296 -21.74185 20683 ft 422 kts 108°
2026-04-29 19:27 63.81921 -21.67551 21497 ft 427 kts 109°
2026-04-29 19:27 63.81537 -21.60840 22274 ft 433 kts 109°
2026-04-29 19:28 63.81145 -21.54051 23054 ft 438 kts 110°
2026-04-29 19:28 63.80743 -21.47169 23773 ft 443 kts 110°
2026-04-29 19:28 63.80334 -21.40227 24417 ft 447 kts 110°
2026-04-29 19:28 63.79918 -21.33214 25057 ft 452 kts 110°
2026-04-29 19:29 63.79493 -21.26130 25680 ft 456 kts 110°
2026-04-29 19:29 63.79061 -21.18995 26284 ft 461 kts 111°
2026-04-29 19:29 63.78638 -21.12216 26825 ft 463 kts 116°
2026-04-29 19:29 63.78103 -21.05018 27366 ft 468 kts 111°
2026-04-29 19:30 63.77522 -20.97833 27970 ft 462 kts 117°
2026-04-29 19:30 63.76737 -20.90764 28476 ft 465 kts 118°
2026-04-29 19:30 63.75933 -20.83663 29008 ft 468 kts 118°
2026-04-29 19:30 63.75109 -20.76540 29507 ft 471 kts 118°
2026-04-29 19:31 63.74263 -20.69355 30011 ft 475 kts 119°
2026-04-29 19:31 63.73402 -20.62122 30429 ft 479 kts 118°
2026-04-29 19:31 63.72527 -20.54843 30822 ft 483 kts 118°
2026-04-29 19:31 63.71630 -20.47521 31248 ft 483 kts 120°
2026-04-29 19:32 63.70496 -20.40483 31751 ft 471 kts 127°
2026-04-29 19:32 63.69133 -20.33804 32260 ft 468 kts 128°
2026-04-29 19:32 63.67750 -20.27158 32778 ft 469 kts 128°
2026-04-29 19:32 63.66399 -20.20633 33283 ft 470 kts 128°
2026-04-29 19:33 63.65022 -20.13949 33791 ft 471 kts 128°
2026-04-29 19:33 63.63647 -20.07259 34248 ft 471 kts 127°
2026-04-29 19:33 63.62303 -20.00722 34651 ft 471 kts 127°
2026-04-29 19:33 63.60925 -19.94039 35064 ft 471 kts 127°
2026-04-29 19:34 63.59542 -19.87354 35475 ft 472 kts 126°
2026-04-29 19:34 63.58178 -19.80778 35872 ft 472 kts 126°
2026-04-29 19:34 63.56765 -19.74008 36288 ft 472 kts 126°
2026-04-29 19:34 63.55367 -19.67341 36680 ft 472 kts 126°
2026-04-29 19:35 63.53971 -19.60694 36950 ft 471 kts 125°
2026-04-29 19:35 63.51194 -19.47538 37011 ft 469 kts 126°
2026-04-29 19:36 63.48377 -19.34278 37015 ft 468 kts 126°
2026-04-29 19:36 63.45588 -19.21238 37012 ft 467 kts 126°
2026-04-29 19:37 63.42785 -19.08211 37016 ft 467 kts 126°
2026-04-29 19:37 63.39941 -18.95079 37012 ft 466 kts 127°
2026-04-29 19:38 63.37133 -18.82181 37022 ft 465 kts 127°
2026-04-29 19:38 63.34471 -18.70032 37010 ft 464 kts 127°
2026-04-29 19:39 63.31628 -18.57135 37012 ft 464 kts 127°
2026-04-29 19:39 63.28773 -18.44265 37014 ft 464 kts 127°
2026-04-29 19:40 63.25908 -18.31429 37018 ft 464 kts 127°
2026-04-29 19:40 63.23031 -18.18612 37028 ft 464 kts 128°
2026-04-29 19:41 63.20143 -18.05814 37033 ft 464 kts 128°
2026-04-29 19:41 63.17239 -17.93032 37039 ft 465 kts 128°
2026-04-29 19:42 63.14322 -17.80266 37046 ft 465 kts 128°
2026-04-29 19:42 63.11390 -17.67512 37055 ft 465 kts 128°
2026-04-29 19:43 63.08445 -17.54774 37064 ft 466 kts 128°
2026-04-29 19:43 63.05490 -17.42072 37066 ft 465 kts 128°
2026-04-29 19:44 63.02524 -17.29393 37058 ft 464 kts 128°
2026-04-29 19:44 62.99567 -17.16817 37053 ft 462 kts 128°
2026-04-29 19:45 62.96600 -17.04289 37061 ft 462 kts 129°
2026-04-29 19:45 62.93626 -16.91801 37067 ft 461 kts 129°
2026-04-29 19:46 62.90643 -16.79344 37065 ft 461 kts 129°
2026-04-29 19:46 62.87651 -16.66921 37064 ft 461 kts 129°
2026-04-29 19:47 62.84648 -16.54523 37070 ft 460 kts 129°
2026-04-29 19:47 62.81636 -16.42158 37072 ft 460 kts 129°
2026-04-29 19:48 62.78635 -16.29907 37071 ft 460 kts 129°
2026-04-29 19:48 62.75602 -16.17593 37069 ft 461 kts 129°
2026-04-29 19:49 62.72557 -16.05300 37081 ft 461 kts 129°
2026-04-29 19:49 62.69997 -15.95019 37085 ft 461 kts 129°
2026-04-29 19:50 62.66950 -15.82842 37084 ft 461 kts 129°
2026-04-29 19:50 62.63874 -15.70618 37089 ft 461 kts 129°
2026-04-29 19:51 62.60786 -15.58415 37089 ft 461 kts 129°
2026-04-29 19:51 62.57686 -15.46230 37094 ft 461 kts 129°
2026-04-29 19:52 62.54577 -15.34079 37094 ft 461 kts 129°
2026-04-29 19:52 62.51461 -15.21963 37099 ft 461 kts 129°
2026-04-29 19:53 62.48332 -15.09866 37099 ft 461 kts 129°
2026-04-29 19:53 62.45193 -14.97795 37100 ft 460 kts 129°
2026-04-29 19:54 62.40469 -14.79753 37099 ft 460 kts 129°
2026-04-29 19:54 62.37306 -14.67754 37103 ft 460 kts 129°
2026-04-29 19:55 62.34137 -14.55795 37120 ft 460 kts 129°
2026-04-29 19:55 62.30958 -14.43863 37111 ft 459 kts 129°
2026-04-29 19:56 62.27770 -14.31962 37107 ft 459 kts 129°
2026-04-29 19:56 62.24573 -14.20090 37120 ft 459 kts 129°
2026-04-29 19:57 62.21367 -14.08248 37123 ft 459 kts 129°
2026-04-29 19:57 62.19759 -14.02332 37238 ft 461 kts 129°
2026-04-29 19:57 62.18142 -13.96403 37662 ft 460 kts 129°
2026-04-29 19:58 62.16528 -13.90496 38074 ft 460 kts 129°
2026-04-29 19:58 62.14913 -13.84597 38456 ft 460 kts 129°
2026-04-29 19:58 62.13296 -13.78709 38824 ft 459 kts 129°
2026-04-29 19:58 62.11675 -13.72825 39058 ft 459 kts 129°
2026-04-29 19:59 62.08463 -13.61203 39134 ft 457 kts 129°
2026-04-29 19:59 62.05225 -13.49548 39137 ft 456 kts 129°
2026-04-29 20:00 62.01982 -13.37939 39139 ft 456 kts 129°
2026-04-29 20:00 61.98731 -13.26357 39148 ft 456 kts 129°
2026-04-29 20:01 61.95470 -13.14801 39152 ft 455 kts 129°
2026-04-29 20:01 61.92205 -13.03286 39162 ft 455 kts 129°
2026-04-29 20:02 61.88929 -12.91796 39166 ft 455 kts 129°
2026-04-29 20:02 61.86204 -12.82278 39169 ft 455 kts 129°
2026-04-29 20:03 61.82358 -12.68914 39171 ft 454 kts 129°
2026-04-29 20:03 61.79062 -12.57523 39177 ft 454 kts 129°
2026-04-29 20:04 61.75756 -12.46157 39185 ft 454 kts 129°
2026-04-29 20:04 61.72442 -12.34818 39189 ft 454 kts 129°
2026-04-29 20:05 61.69121 -12.23511 39196 ft 454 kts 129°
2026-04-29 20:05 61.65789 -12.12225 39201 ft 454 kts 129°
2026-04-29 20:06 61.62447 -12.00960 39211 ft 454 kts 129°
2026-04-29 20:06 61.59099 -11.89730 39216 ft 453 kts 129°
2026-04-29 20:07 61.55766 -11.78603 39220 ft 453 kts 129°
2026-04-29 20:07 61.52383 -11.67363 39226 ft 453 kts 129°
2026-04-29 20:08 61.49582 -11.58099 39226 ft 453 kts 129°
2026-04-29 20:08 61.45638 -11.45121 39237 ft 452 kts 129°
2026-04-29 20:09 61.42278 -11.34120 39245 ft 452 kts 129°
2026-04-29 20:09 61.38893 -11.23092 39234 ft 451 kts 129°
2026-04-29 20:10 61.35501 -11.12092 39244 ft 451 kts 129°
2026-04-29 20:10 61.32106 -11.01133 39246 ft 450 kts 129°
2026-04-29 20:11 61.28702 -10.90199 39253 ft 450 kts 129°
2026-04-29 20:11 61.25294 -10.79306 39256 ft 449 kts 129°
2026-04-29 20:12 61.21883 -10.68453 39259 ft 449 kts 129°
2026-04-29 20:12 61.18461 -10.57616 39262 ft 449 kts 129°
2026-04-29 20:13 61.15593 -10.48570 39267 ft 449 kts 129°
2026-04-29 20:13 61.11603 -10.36040 39271 ft 448 kts 129°
2026-04-29 20:14 61.08166 -10.25277 39276 ft 448 kts 129°
2026-04-29 20:14 61.04726 -10.14547 39277 ft 448 kts 129°
2026-04-29 20:15 61.01039 -10.04273 39278 ft 443 kts 136°
2026-04-29 20:15 60.96740 -9.95309 39287 ft 437 kts 145°
2026-04-29 20:16 60.91919 -9.87842 39289 ft 433 kts 149°
2026-04-29 20:16 60.87054 -9.80509 39297 ft 434 kts 149°
2026-04-29 20:17 60.82184 -9.73192 39296 ft 434 kts 149°
2026-04-29 20:17 60.77300 -9.65898 39298 ft 434 kts 149°
2026-04-29 20:18 60.72409 -9.58628 39305 ft 435 kts 149°
2026-04-29 20:18 60.67511 -9.51374 39312 ft 435 kts 149°
2026-04-29 20:19 60.62603 -9.44135 39314 ft 436 kts 149°
2026-04-29 20:19 60.57566 -9.37369 39319 ft 432 kts 154°
2026-04-29 20:20 60.52402 -9.31089 39321 ft 433 kts 154°
2026-04-29 20:20 60.47243 -9.24780 39325 ft 433 kts 154°
2026-04-29 20:21 60.42116 -9.18501 39333 ft 434 kts 154°
2026-04-29 20:21 60.36953 -9.12195 39336 ft 434 kts 154°
2026-04-29 20:22 60.31782 -9.05905 39336 ft 434 kts 154°
2026-04-29 20:22 60.26610 -8.99637 39340 ft 434 kts 154°
2026-04-29 20:23 60.21430 -8.93392 39345 ft 434 kts 154°
2026-04-29 20:23 60.16246 -8.87170 39345 ft 434 kts 154°
2026-04-29 20:24 60.11059 -8.80969 39346 ft 434 kts 154°
2026-04-29 20:24 60.05836 -8.74747 39348 ft 434 kts 154°
2026-04-29 20:25 60.00678 -8.68626 39351 ft 434 kts 154°
2026-04-29 20:25 59.95478 -8.62479 39353 ft 434 kts 154°
2026-04-29 20:26 59.90278 -8.56352 39355 ft 434 kts 154°
2026-04-29 20:26 59.85073 -8.50244 39357 ft 434 kts 154°
2026-04-29 20:27 59.80747 -8.45184 39357 ft 434 kts 154°
2026-04-29 20:27 59.74654 -8.38082 39360 ft 434 kts 154°
2026-04-29 20:28 59.69440 -8.32030 39363 ft 434 kts 154°
2026-04-29 20:28 59.64220 -8.25992 39363 ft 434 kts 154°
2026-04-29 20:29 59.59003 -8.19979 39368 ft 434 kts 154°
2026-04-29 20:29 59.53780 -8.13983 39370 ft 434 kts 153°
2026-04-29 20:30 59.48555 -8.08005 39371 ft 434 kts 153°
2026-04-29 20:30 59.43332 -8.02051 39376 ft 434 kts 153°
2026-04-29 20:31 59.38104 -7.96112 39371 ft 434 kts 153°
2026-04-29 20:31 59.32879 -7.90198 39380 ft 434 kts 153°
2026-04-29 20:32 59.27656 -7.84309 39385 ft 433 kts 153°
2026-04-29 20:32 59.23315 -7.79430 39386 ft 433 kts 153°
2026-04-29 20:33 59.17240 -7.72626 39390 ft 433 kts 153°
2026-04-29 20:33 59.12018 -7.66800 39383 ft 432 kts 153°
2026-04-29 20:34 59.06797 -7.60996 39383 ft 432 kts 153°
2026-04-29 20:34 59.01579 -7.55214 39386 ft 432 kts 153°
2026-04-29 20:35 58.96362 -7.49455 39385 ft 431 kts 153°
2026-04-29 20:35 58.91150 -7.43721 39383 ft 431 kts 153°
2026-04-29 20:36 58.85937 -7.38006 39385 ft 430 kts 153°
2026-04-29 20:36 58.80727 -7.32315 39387 ft 430 kts 153°
2026-04-29 20:37 58.75521 -7.26647 39386 ft 430 kts 153°
2026-04-29 20:37 58.70315 -7.21000 39388 ft 429 kts 153°
2026-04-29 20:38 58.65992 -7.16325 39387 ft 429 kts 152°
2026-04-29 20:38 58.60791 -7.10718 39389 ft 429 kts 152°
2026-04-29 20:39 58.55590 -7.05130 39387 ft 428 kts 152°
2026-04-29 20:39 58.50391 -6.99563 39383 ft 428 kts 152°
2026-04-29 20:40 58.45192 -6.94017 39389 ft 428 kts 152°
2026-04-29 20:40 58.39996 -6.88492 39389 ft 428 kts 152°
2026-04-29 20:41 58.34800 -6.82985 39389 ft 427 kts 152°
2026-04-29 20:41 58.29597 -6.77490 39396 ft 427 kts 152°
2026-04-29 20:42 58.24397 -6.72016 39395 ft 427 kts 152°
2026-04-29 20:42 58.19192 -6.66556 39393 ft 427 kts 152°
2026-04-29 20:43 58.13985 -6.61113 39396 ft 428 kts 152°
2026-04-29 20:43 58.08774 -6.55682 39396 ft 428 kts 152°
2026-04-29 20:44 58.03556 -6.50264 39395 ft 428 kts 152°
2026-04-29 20:44 57.98337 -6.44862 39397 ft 428 kts 152°
2026-04-29 20:45 57.93114 -6.39475 39396 ft 428 kts 152°
2026-04-29 20:45 57.87887 -6.34100 39392 ft 428 kts 152°
2026-04-29 20:46 57.82657 -6.28741 39395 ft 428 kts 152°
2026-04-29 20:46 57.77428 -6.23402 39395 ft 428 kts 152°
2026-04-29 20:47 57.72196 -6.18076 39395 ft 428 kts 152°
2026-04-29 20:47 57.66965 -6.12769 39401 ft 428 kts 152°
2026-04-29 20:48 57.61732 -6.07478 39401 ft 427 kts 152°
2026-04-29 20:48 57.56502 -6.02208 39396 ft 427 kts 152°
2026-04-29 20:49 57.51279 -5.96961 39395 ft 427 kts 152°
2026-04-29 20:49 57.46053 -5.91728 39398 ft 426 kts 152°
2026-04-29 20:50 57.40832 -5.86519 39392 ft 426 kts 152°
2026-04-29 20:50 57.35653 -5.81367 39397 ft 425 kts 152°
2026-04-29 20:51 57.30437 -5.76195 39389 ft 425 kts 151°
2026-04-29 20:51 57.25227 -5.71046 39384 ft 425 kts 151°
2026-04-29 20:52 57.20017 -5.65914 39387 ft 425 kts 151°
2026-04-29 20:52 57.14803 -5.60794 39384 ft 425 kts 151°
2026-04-29 20:53 57.09585 -5.55687 39387 ft 425 kts 151°
2026-04-29 20:53 57.04370 -5.50598 39384 ft 424 kts 151°
2026-04-29 20:54 56.96535 -5.42985 39389 ft 425 kts 151°
2026-04-29 20:55 56.91311 -5.37928 39396 ft 425 kts 151°
2026-04-29 20:55 56.86088 -5.32888 39398 ft 424 kts 151°
2026-04-29 20:56 56.80870 -5.27870 39403 ft 424 kts 151°
2026-04-29 20:56 56.75651 -5.22867 39404 ft 423 kts 151°
2026-04-29 20:57 56.70442 -5.17888 39406 ft 423 kts 151°
2026-04-29 20:57 56.65232 -5.12925 39402 ft 422 kts 151°
2026-04-29 20:58 56.60032 -5.07985 39397 ft 421 kts 151°
2026-04-29 20:58 56.54838 -5.03068 39398 ft 421 kts 151°
2026-04-29 20:59 56.49649 -4.98170 39397 ft 420 kts 151°
2026-04-29 20:59 56.44471 -4.93298 39396 ft 419 kts 151°
2026-04-29 21:00 56.39294 -4.88442 39395 ft 419 kts 151°
2026-04-29 21:00 56.34118 -4.83603 39400 ft 419 kts 151°
2026-04-29 21:01 56.28940 -4.78775 39400 ft 419 kts 152°
2026-04-29 21:01 56.23762 -4.73963 39410 ft 419 kts 152°
2026-04-29 21:02 56.18583 -4.69165 39416 ft 419 kts 152°
2026-04-29 21:02 56.13403 -4.64380 39416 ft 419 kts 152°
2026-04-29 21:03 56.08219 -4.59607 39422 ft 418 kts 152°
2026-04-29 21:03 56.03040 -4.54853 39429 ft 418 kts 152°
2026-04-29 21:04 55.97866 -4.50117 39431 ft 418 kts 151°
2026-04-29 21:04 55.92731 -4.45431 39431 ft 417 kts 152°
2026-04-29 21:05 55.87567 -4.40733 39426 ft 416 kts 152°
2026-04-29 21:05 55.82405 -4.36051 39430 ft 417 kts 152°
2026-04-29 21:06 55.77233 -4.31374 39426 ft 417 kts 152°
2026-04-29 21:06 55.72065 -4.26714 39421 ft 417 kts 152°
2026-04-29 21:07 55.66889 -4.22061 39418 ft 417 kts 152°
2026-04-29 21:07 55.61712 -4.17421 39408 ft 417 kts 152°
2026-04-29 21:08 55.56530 -4.12790 39411 ft 417 kts 152°
2026-04-29 21:08 55.51348 -4.08172 39411 ft 417 kts 152°
2026-04-29 21:09 55.46165 -4.03569 39413 ft 417 kts 152°
2026-04-29 21:09 55.40979 -3.98975 39415 ft 417 kts 152°
2026-04-29 21:10 55.35795 -3.94397 39420 ft 417 kts 152°
2026-04-29 21:10 55.30607 -3.89829 39420 ft 417 kts 152°
2026-04-29 21:11 55.25421 -3.85278 39423 ft 417 kts 152°
2026-04-29 21:11 55.20235 -3.80738 39423 ft 416 kts 152°
2026-04-29 21:12 55.15054 -3.76217 39421 ft 416 kts 152°
2026-04-29 21:12 55.09873 -3.71708 39419 ft 416 kts 152°
2026-04-29 21:13 55.04692 -3.67214 39417 ft 416 kts 152°
2026-04-29 21:13 54.99513 -3.62733 39411 ft 415 kts 152°
2026-04-29 21:14 54.94341 -3.58272 39402 ft 415 kts 153°
2026-04-29 21:14 54.89166 -3.53820 39395 ft 415 kts 153°
2026-04-29 21:15 54.83999 -3.49389 39392 ft 414 kts 153°
2026-04-29 21:15 54.78830 -3.44968 39392 ft 414 kts 153°
2026-04-29 21:16 54.73658 -3.40558 39390 ft 414 kts 153°
2026-04-29 21:16 54.68486 -3.36160 39390 ft 415 kts 153°
2026-04-29 21:17 54.63307 -3.31769 39393 ft 415 kts 153°
2026-04-29 21:17 54.58123 -3.27386 39392 ft 415 kts 153°
2026-04-29 21:18 54.52932 -3.23010 39399 ft 415 kts 153°
2026-04-29 21:18 54.47735 -3.18640 39397 ft 416 kts 153°
2026-04-29 21:19 54.42529 -3.14273 39404 ft 416 kts 153°
2026-04-29 21:19 54.37322 -3.09914 39402 ft 416 kts 153°
2026-04-29 21:20 54.32115 -3.05567 39405 ft 416 kts 153°
2026-04-29 21:20 54.26905 -3.01230 39403 ft 416 kts 153°
2026-04-29 21:21 54.21696 -2.96906 39401 ft 416 kts 153°
2026-04-29 21:21 54.16480 -2.92656 39399 ft 415 kts 154°
2026-04-29 21:22 54.11160 -2.88810 39394 ft 415 kts 156°
2026-04-29 21:22 54.05855 -2.84951 39389 ft 414 kts 155°
2026-04-29 21:23 54.01456 -2.81749 39383 ft 414 kts 155°
2026-04-29 21:23 53.96168 -2.77913 39380 ft 413 kts 155°
2026-04-29 21:24 53.90885 -2.74090 39369 ft 412 kts 155°
2026-04-29 21:24 53.85605 -2.70283 39374 ft 412 kts 155°
2026-04-29 21:25 53.80336 -2.66496 39373 ft 411 kts 155°
2026-04-29 21:25 53.75066 -2.62718 39373 ft 411 kts 155°
2026-04-29 21:26 53.69797 -2.58951 39365 ft 411 kts 155°
2026-04-29 21:26 53.64558 -2.55216 39364 ft 411 kts 156°
2026-04-29 21:27 53.59295 -2.51473 39364 ft 411 kts 156°
2026-04-29 21:27 53.54028 -2.47737 39369 ft 411 kts 156°
2026-04-29 21:28 53.48763 -2.44012 39370 ft 411 kts 156°
2026-04-29 21:28 53.43487 -2.40292 39375 ft 411 kts 156°
2026-04-29 21:29 53.38216 -2.36583 39367 ft 411 kts 156°
2026-04-29 21:29 53.32934 -2.32878 39365 ft 412 kts 156°
2026-04-29 21:30 53.27646 -2.29178 39369 ft 412 kts 156°
2026-04-29 21:30 53.22357 -2.25487 39365 ft 413 kts 156°
2026-04-29 21:31 53.17048 -2.21794 39362 ft 413 kts 156°
2026-04-29 21:31 53.11739 -2.18110 39364 ft 414 kts 156°
2026-04-29 21:32 53.06416 -2.14425 39362 ft 415 kts 156°
2026-04-29 21:32 53.01085 -2.10745 39361 ft 415 kts 156°
2026-04-29 21:33 52.95751 -2.07073 39359 ft 416 kts 156°
2026-04-29 21:33 52.90400 -2.03401 39362 ft 416 kts 156°
2026-04-29 21:34 52.85049 -1.99741 39356 ft 416 kts 156°